Flag for Mexico

Past Weather in Guadalajara, Jalisco, Mexico — Yesterday and Last 2 Weeks

Now
64 °F

Passing clouds.


Feels Like: 64 °F
Forecast: 82 / 63 °F
Wind: No wind

Location: Don Miguel / Guadalaj

Current Time: Aug 5, 2020 at 6:40:52 am

Latest Report: Aug 5, 2020 at 5:42 am


Visibility: 8 mi

Pressure: 30.20 "Hg (25.20 "Hg at 1543m altitude)

Humidity: 83%

Dew Point: 59 °F

Location of GuadalajaraLocation

Past Weather in Guadalajara — Graph

°F

Guadalajara Temperature Yesterday

Maximum temperature yesterday: 82 °F (at 3:47 pm)
Minimum temperature yesterday: 64 °F (at 1:55 am)
Average temperature yesterday: 72 °F

High & Low Weather Summary for the Past Weeks

 TemperatureHumidityPressure
High84 °F (Jul 21, 3:46 pm)94% (Jul 29, 5:41 am)30.29 "Hg (Jul 29, 5:41 am)
Low59 °F (Jul 31, 7:52 am)23% (Jul 21, 5:45 pm)29.65 "Hg (Jul 28, 6:49 pm)
Average70 °F70%30.05 "Hg
* Reported Jul 21 4:24 am — Aug 5 4:48 am, Guadalajara. Weather by CustomWeather, © 2020

Note: Actual official high and low records may vary slightly from our data, if they occured in-between our weather recording intervals... More about our weather records

Guadalajara Weather History for the Previous 24 Hours

Scroll right to see more
 ConditionsComfort  
Time TempWeatherWind HumidityBarometerVisibility
4:48 am
Wed, Aug 5
64 °FPassing clouds.No wind83%30.22 "Hg8 mi
3:43 am64 °FPassing clouds.No wind83%29.83 "Hg8 mi
1:42 am68 °FPassing clouds.5 mph73%30.22 "Hg10 mi
12:48 am70 °FPassing clouds.No wind73%29.83 "Hg10 mi
11:45 pm
Tue, Aug 4
68 °FPassing clouds.7 mph73%30.21 "Hg10 mi
10:46 pm72 °FPassing clouds.3 mph69%30.20 "Hg10 mi
9:45 pm73 °FPartly cloudy.3 mph69%29.82 "Hg8 mi
8:44 pm75 °FPartly cloudy.No wind65%30.19 "Hg8 mi
7:45 pm81 °FScattered clouds.5 mph45%30.15 "Hg8 mi
5:46 pm82 °FScattered clouds.8 mph40%30.14 "Hg8 mi
4:43 pm82 °FScattered clouds.No wind40%30.16 "Hg8 mi
3:47 pm82 °FScattered clouds.5 mph40%29.80 "Hg7 mi
2:47 pm81 °FScattered clouds.No wind48%30.22 "Hg6 mi
1:45 pm79 °FScattered clouds.5 mph51%30.24 "Hg6 mi
12:43 pm77 °FScattered clouds.3 mph57%29.90 "Hg5 mi
11:53 am77 °FScattered clouds.7 mph57%30.27 "Hg5 mi
10:41 am73 °FScattered clouds.No wind65%30.28 "Hg5 mi
9:51 am72 °FScattered clouds.No wind69%29.91 "Hg4 mi
8:42 am66 °FPartly sunny.No wind88%30.27 "Hg3 mi
7:48 am64 °FFog.No wind88%30.25 "Hg2 mi
6:52 am64 °FPassing clouds.No wind88%29.85 "Hg7 mi
Weather by CustomWeather, © 2020

See weather overview